Voltar ao catálogo

COSMOS 2251 DEB

AtivoLEO
NORAD 33793·DEBRIS·🇷🇺 Russia

Lançado Jun 16, 1993 de Plesetsk Cosmodrome

Loading…

Próximas Passagens (próximas 24 horas)

TLE

AtualizadoSource: Space-Track

Época: Sep 14, 2026, 07:56 UTC

1 33793U 93036AJ  26257.33086366  .00000907  00000-0  36087-3 0  9996
2 33793  73.9832   8.6663 0076434  95.9926 295.7616 14.28476402911412

Acompanhe COSMOS 2251 DEB em tempo real com AllMySat

Download on the App Store